Date,TemperatureHighF,TemperatureAvgF,TemperatureLowF,DewpointHighF,DewpointAvgF,DewpointLowF,HumidityHigh,HumidityAvg,HumidityLow,PressureMaxIn,PressureMinIn,WindSpeedMaxMPH,WindSpeedAvgMPH,GustSpeedMaxMPH,PrecipitationSumIn
2013-9-1,93,73,54,38,22,6,50,22,4,29.56,29.50,14,4,14,0.00
2013-9-3,95,78,60,34,16,6,35,12,4,29.65,29.59,11,4,11,0.00
2013-9-4,88,68,56,40,23,9,52,23,5,29.71,29.65,9,2,9,0.00
2013-9-5,79,62,56,53,45,15,80,61,10,29.74,29.62,22,4,22,2.32
2013-9-6,79,63,55,55,41,12,81,53,8,29.83,29.74,16,6,16,0.91
2013-9-7,85,67,51,54,29,9,78,37,6,29.77,29.59,13,4,13,0.00
2013-9-8,86,71,56,46,27,9,56,25,6,29.74,29.65,17,6,17,0.00
2013-9-9,94,74,56,55,26,9,73,23,6,29.68,29.59,17,6,17,0.00
2013-9-10,91,76,58,58,31,17,75,26,7,29.59,29.44,15,5,15,0.00
2013-9-11,105,79,58,41,28,9,47,22,4,29.62,29.47,9,3,9,0.00
2013-9-12,92,68,56,52,36,9,78,41,5,29.68,29.56,8,2,8,0.00
2013-9-13,82,66,57,53,42,17,75,47,9,29.62,29.50,9,2,9,0.00
2013-9-14,85,67,57,58,40,15,80,46,8,29.53,29.38,9,3,9,0.00
2013-9-15,70,62,58,54,46,36,80,59,29,29.59,29.41,12,5,12,0.00
2013-9-16,85,65,58,48,31,10,67,33,6,29.65,29.56,11,4,13,0.00
2013-9-17,82,62,55,46,27,9,62,32,7,29.71,29.53,16,5,16,0.00
2013-9-18,88,63,50,53,26,6,79,36,5,29.77,29.68,10,3,10,0.00
2013-9-19,90,65,44,43,21,7,76,29,5,29.68,29.44,6,1,6,0.00
2013-9-20,82,61,50,38,25,9,48,30,6,29.47,29.35,18,5,18,0.00
2013-9-21,76,62,54,51,34,9,76,44,8,29.47,29.35,15,5,15,0.00
2013-9-22,59,56,53,49,40,30,76,57,33,29.50,29.41,24,10,24,0.24
2013-9-23,66,56,52,49,40,32,78,54,30,29.68,29.41,17,6,17,0.35
2013-9-24,66,55,50,54,41,26,81,63,23,29.65,29.53,17,3,17,0.51
2013-9-25,75,54,48,44,32,7,76,49,10,29.71,29.53,10,3,10,0.28
2013-9-26,86,57,46,46,27,6,76,42,6,29.80,29.71,10,1,10,0.28
2013-9-27,59,52,44,47,35,23,76,55,27,29.83,29.62,22,7,22,0.28
2013-9-28,67,59,56,49,42,30,76,56,27,29.62,29.38,32,13,32,0.16
2013-9-29,55,54,53,42,38,34,66,56,47,29.38,29.18,31,17,31,0.59
2013-9-30,63,54,50,47,33,27,69,47,28,29.71,29.35,20,9,24,1.50